Stations météo

Publicité
Chambery/Aix-Les-Bains, France (7491): Température de l'air & dewpoint: 11.07.2018 06:00:00 - 17.07.2018 06:00:00 (CEST)Chambery/Aix-Les-Bains, France (7491): Température de l'air 5cm: 11.07.2018 06:00:00 - 17.07.2018 06:00:00 (CEST)Chambery/Aix-Les-Bains, France (7491): Température de l'air -20cm & Température de l'air -100cm: 11.07.2018 06:00:00 - 17.07.2018 06:00:00 (CEST)Chambery/Aix-Les-Bains, France (7491): Vitesse du vent & gusts: 11.07.2018 06:00:00 - 17.07.2018 06:00:00 (CEST)Chambery/Aix-Les-Bains, France (7491): Direction du vent: 11.07.2018 06:00:00 - 17.07.2018 06:00:00 (CEST)Chambery/Aix-Les-Bains, France (7491): reduced air pressure: 11.07.2018 06:00:00 - 17.07.2018 06:00:00 (CEST)Chambery/Aix-Les-Bains, France (7491): visibility: 11.07.2018 06:00:00 - 17.07.2018 06:00:00 (CEST)Chambery/Aix-Les-Bains, France (7491): Ensoleillement: 11.07.2018 06:00:00 - 17.07.2018 06:00:00 (CEST)Chambery/Aix-Les-Bains, France (7491): Quantités de précipitations: 11.07.2018 06:00:00 - 17.07.2018 06:00:00 (CEST)
Date & Time tt [°C] td [°C] tt 5cm [°C] tt -20cm [°C] tt -100cm [°C] ff [km/h] ff [knt] fx [km/h] fx [knt] dd ppp [hPa] vv [km] sd [min] rr [mm]
17.07.2018 06:00:00 16,0 13,8 16,0 21,9 19,2 4 2 7 4 WSW 1016,2 7 0 0,0
17.07.2018 05:00:00 17,9 13,8 16,6 22,0 19,2 2 1 8 5 SSW 1015,5 13 0 0,0
17.07.2018 04:00:00 16,9 13,6 17,0 22,1 19,2 3 2 9 5 S 1015,3 7 0 0,0
17.07.2018 03:00:00 18,3 14,2 17,9 22,1 19,2 5 3 12 7 WNW 1015,0 16 0 0,0
17.07.2018 02:00:00 21,5 13,7 20,0 22,1 19,2 4 2 20 11 NNE 1014,3 20 0 0,0
17.07.2018 01:00:00 23,6 12,6 20,8 22,1 19,2 10 6 24 13 N 1013,5 43 0 0,0
17.07.2018 00:00:00 24,7 12,3 21,6 22,2 19,2 18 10 42 23 NNW 1013,3 20 0 0,0
16.07.2018 23:00:00 25,9 11,6 21,9 22,2 19,2 17 9 42 23 NNW 1012,3 46 0 0,0
16.07.2018 22:00:00 27,0 9,8 21,9 22,2 19,2 14 8 34 19 N 1011,0 59 0 0,0
16.07.2018 21:00:00 25,0 15,6 23,2 22,1 19,2 17 9 26 14 NNE 1009,9 20 37 0,0
16.07.2018 20:00:00 26,5 15,5 24,8 22,0 19,2 6 3 25 14 NW 1009,1 20 50 0,0
16.07.2018 19:00:00 28,3 14,2 25,6 21,9 19,2 18 10 30 16 N 1008,3 20 46 0,0
16.07.2018 18:00:00 30,3 13,1 26,1 21,8 19,2 12 6 21 11 NNW 1007,6 17 36 0,0
16.07.2018 17:00:00 28,8 13,1 26,9 21,7 19,2 11 6 23 12 N 1007,6 47 26 0,0
16.07.2018 16:00:00 30,2 13,9 29,0 21,6 19,2 15 8 23 12 NNE 1008,1 18 60 0,0
16.07.2018 15:00:00 29,3 16,5 29,2 21,6 19,2 13 7 26 14 N 1008,5 17 60 0,0
16.07.2018 14:00:00 28,1 15,0 25,9 21,5 19,2 8 4 19 10 N 1009,6 17 29 0,0
16.07.2018 13:00:00 26,1 15,8 25,0 21,5 19,2 10 6 19 10 N 1010,8 16 36 0,0
16.07.2018 12:00:00 24,9 14,7 23,9 21,5 19,2 6 3 16 9 NNW 1011,4 19 58 0,0
16.07.2018 11:00:00 23,0 14,3 21,9 21,5 19,2 9 5 15 8 N 1011,9 19 52 0,0
16.07.2018 10:00:00 21,5 15,1 20,7 21,5 19,2 5 3 12 7 N 1013,0 19 44 0,0
16.07.2018 09:00:00 20,1 14,5 19,2 21,6 19,2 6 3 14 7 N 1013,7 19 54 0,0
16.07.2018 08:00:00 18,7 14,6 16,1 21,7 19,2 7 4 11 6 N 1014,2 20 52 0,0
16.07.2018 07:00:00 14,7 13,4 15,9 21,8 19,2 2 1 9 5 W 1014,8 14 0 0,0
16.07.2018 06:00:00 14,9 14,1 15,5 21,8 19,2 6 3 12 6 SE 1014,6 17 0 0,0
16.07.2018 05:00:00 15,0 13,7 16,0 21,9 19,2 5 3 9 5 SSE 1015,5 17 0 0,0
16.07.2018 04:00:00 15,1 13,6 16,1 22,0 19,2 8 4 14 8 S 1015,6 18 0 0,0
16.07.2018 03:00:00 16,4 14,8 16,5 22,0 19,2 9 5 16 8 SW 1016,0 20 0 0,0
16.07.2018 02:00:00 17,7 15,0 17,0 22,1 19,2 11 6 25 14 SSW 1016,0 20 0 0,0
16.07.2018 01:00:00 19,1 14,4 17,1 22,1 19,2 18 10 35 19 S 1016,0 60 0 0,0
16.07.2018 00:00:00 19,7 14,5 17,2 22,2 19,2 16 9 41 22 SW 1016,2 58 0 0,0
15.07.2018 23:00:00 19,5 15,8 18,3 22,2 19,1 16 9 24 13 S 1016,4 19 0 0,2
15.07.2018 22:00:00 19,8 15,9 18,6 22,2 19,2 10 5 31 17 S 1015,4 20 0 0,0
15.07.2018 21:00:00 21,4 15,5 19,3 22,2 19,2 18 10 37 20 N 1015,2 19 0 0,0
15.07.2018 20:00:00 23,1 14,4 19,9 22,1 19,1 8 4 37 20 E 1013,5 20 0 0,0
15.07.2018 19:00:00 22,0 15,4 20,1 22,0 19,2 26 14 68 37 N 1013,9 18 0 0,0
15.07.2018 18:00:00 26,5 19,6 25,6 21,8 19,1 9 5 19 10 N 1012,2 20 2 0,0
15.07.2018 17:00:00 31,9 15,4 30,5 21,7 19,2 6 3 16 9 NNW 1011,4 47 57 0,0
15.07.2018 16:00:00 31,2 15,2 32,0 21,6 19,1 5 3 17 9 W 1012,0 18 60 0,0
15.07.2018 15:00:00 29,5 15,6 29,9 21,5 19,1 6 3 15 8 SW 1013,1 18 60 0,2
15.07.2018 14:00:00 27,5 15,5 26,8 21,4 19,1 6 3 17 9 S 1014,4 18 60 0,0
15.07.2018 13:00:00 26,2 16,4 22,7 21,4 19,2 6 4 18 10 SSW 1015,3 19 60 0,0
15.07.2018 12:00:00 24,2 15,9 21,7 21,4 19,1 10 6 20 11 SSW 1016,1 19 60 0,0
15.07.2018 11:00:00 21,6 16,3 20,1 21,5 19,2 4 2 11 6 S 1016,5 19 14 0,0
15.07.2018 10:00:00 19,2 15,7 18,2 21,5 19,1 3 1 9 5 SW 1017,2 20 4 0,0
15.07.2018 09:00:00 17,7 16,6 17,8 21,6 19,1 11 6 16 9 S 1017,8 16 0 0,2
15.07.2018 08:00:00 16,2 15,4 16,6 21,6 19,1 5 3 7 4 SSW 1017,4 11 12 0,0
15.07.2018 07:00:00 15,0 14,5 15,1 21,7 19,1 3 2 7 4 S 1017,4 11 33 0,0
15.07.2018 06:00:00 14,3 13,7 14,8 21,8 19,1 4 2 6 3 SSW 1017,2 0,9 0 0,0
15.07.2018 05:00:00 14,4 13,8 15,2 21,9 19,1 3 2 8 5 SSE 1017,3 8 0 0,0
15.07.2018 04:00:00 14,8 14,2 15,7 22,0 19,1 4 2 6 3 S 1017,3 4,5 0 0,0
15.07.2018 03:00:00 15,5 14,7 16,1 22,0 19,1 4 2 7 4 S 1017,5 11 0 0,0
15.07.2018 02:00:00 15,5 14,9 16,2 22,1 19,1 6 3 9 5 S 1017,7 11 0 0,0
15.07.2018 01:00:00 15,8 14,8 16,6 22,1 19,1 4 2 7 4 SW 1017,7 7 0 0,0
15.07.2018 00:00:00 16,4 15,4 16,9 22,2 19,1 3 2 12 6 E 1017,7 17 0 0,2
14.07.2018 23:00:00 17,1 16,0 17,7 22,2 19,1 6 3 13 7 S 1017,8 16 0 0,0
14.07.2018 22:00:00 18,3 16,1 17,6 22,2 19,1 4 2 23 12 WSW 1017,7 7 0 0,0
14.07.2018 21:00:00 19,0 15,7 17,3 22,2 19,1 15 8 64 34 SSW 1016,7 20 0 1,2
14.07.2018 20:00:00 25,4 17,6 25,2 22,1 19,1 10 5 20 11 NNW 1015,7 17 0 0,0
14.07.2018 19:00:00 27,8 16,7 27,6 22,0 19,1 15 8 21 12 S 1014,1 20 3 0,0
14.07.2018 18:00:00 30,1 14,6 31,0 21,9 19,1 13 7 34 18 S 1014,0 18 46 0,0
14.07.2018 17:00:00 29,6 16,4 29,8 21,8 19,1 18 10 30 16 S 1014,4 18 32 0,0
14.07.2018 16:00:00 29,5 16,0 33,1 21,7 19,1 14 8 28 15 SSW 1014,9 19 45 0,0
14.07.2018 15:00:00 29,4 16,2 28,6 21,7 19,1 19 10 29 16 S 1015,3 17 56 0,0
14.07.2018 14:00:00 27,0 17,8 26,5 21,6 19,1 12 6 19 10 S 1016,1 19 5 0,0
14.07.2018 13:00:00 28,0 13,9 29,9 21,6 19,1 6 3 11 6 N 1015,9 19 11 0,0
14.07.2018 12:00:00 28,0 13,5 30,5 21,6 19,1 6 4 13 7 N 1016,1 18 57 0,0
14.07.2018 11:00:00 26,3 13,8 27,9 21,6 19,1 4 2 11 6 NE 1017,2 19 55 0,0
14.07.2018 10:00:00 24,7 13,9 24,6 21,6 19,1 5 3 12 7 SE 1017,6 17 60 0,0
14.07.2018 09:00:00 22,9 14,5 20,6 21,6 19,1 3 2 9 5 NE 1018,0 17 56 0,0
14.07.2018 08:00:00 20,8 15,3 16,8 21,7 19,1 0 0 6 4 N 1018,2 17 47 0,0
14.07.2018 07:00:00 16,2 14,2 16,2 21,8 19,1 5 3 8 4 S 1018,7 17 0 0,0
14.07.2018 06:00:00 16,2 13,7 16,3 21,8 19,1 4 2 6 3 S 1018,9 19 0 0,0
14.07.2018 05:00:00 16,6 13,9 16,2 21,9 19,1 0 0 8 4 N 1018,6 20 0 0,0
14.07.2018 04:00:00 16,8 13,7 16,3 21,9 19,1 2 1 8 4 SSW 1018,3 19 0 0,0
14.07.2018 03:00:00 16,8 13,3 16,4 22,0 19,1 2 1 6 4 S 1018,6 20 0 0,0
14.07.2018 02:00:00 17,4 13,5 16,6 22,1 19,1 4 2 5 3 S 1018,2 20 0 0,0
14.07.2018 01:00:00 18,6 13,7 17,4 22,1 19,1 3 1 7 4 WSW 1018,0 20 0 0,0
14.07.2018 00:00:00 19,3 13,7 17,8 22,1 19,1 2 1 10 5 SSE 1017,6 20 0 0,0
13.07.2018 23:00:00 19,1 14,4 18,6 22,1 19,1 6 4 10 6 S 1017,5 20 0 0,0
13.07.2018 22:00:00 21,0 14,4 19,9 22,1 19,1 3 1 8 4 WNW 1016,9 2,4 0 0,0
13.07.2018 21:00:00 23,2 14,2 22,3 22,1 19,1 7 4 9 5 S 1015,9 13 0 0,0
13.07.2018 20:00:00 27,7 13,2 26,6 22,0 19,1 8 4 19 10 WNW 1015,2 20 29 0,0
13.07.2018 19:00:00 28,9 15,4 27,5 21,9 19,1 12 6 21 11 NNE 1015,1 19 30 0,0
13.07.2018 18:00:00 29,3 14,7 29,0 21,7 19,1 13 7 19 10 N 1015,3 19 0 0,0
13.07.2018 17:00:00 30,3 14,4 32,1 21,6 19,1 11 6 18 10 N 1015,4 19 56 0,0
13.07.2018 16:00:00 30,6 13,4 33,3 21,5 19,1 9 5 16 9 N 1016,0 15 60 0,0
13.07.2018 15:00:00 29,5 12,0 34,3 21,4 19,1 8 5 15 8 N 1016,5 19 60 0,0
13.07.2018 14:00:00 29,0 13,6 33,4 21,4 19,1 7 4 16 9 N 1017,0 18 60 0,0
13.07.2018 13:00:00 27,3 12,5 32,0 21,3 19,1 7 4 13 7 N 1017,5 17 60 0,0
13.07.2018 12:00:00 26,1 12,2 30,0 21,3 19,1 5 3 13 7 NNE 1018,1 19 60 0,0
13.07.2018 11:00:00 24,7 12,9 24,6 21,3 19,1 4 2 13 7 ENE 1018,4 18 60 0,0
13.07.2018 10:00:00 22,4 14,0 20,6 21,3 19,1 4 2 9 5 S 1019,0 17 60 0,0
13.07.2018 09:00:00 20,2 13,4 17,8 21,4 19,1 3 2 6 3 S 1019,5 18 60 0,0
13.07.2018 08:00:00 16,8 13,3 14,1 21,5 19,1 2 1 6 3 S 1019,7 15 55 0,0
13.07.2018 07:00:00 13,0 11,7 13,0 21,6 19,1 4 2 6 4 SE 1019,8 12 0 0,0
13.07.2018 06:00:00 13,2 11,9 13,0 21,6 19,0 2 1 8 4 S 1019,5 14 0 0,0
13.07.2018 05:00:00 13,1 11,8 13,2 21,7 19,0 4 2 7 4 S 1019,4 15 0 0,0
13.07.2018 04:00:00 13,7 11,6 13,5 21,8 19,1 3 2 6 3 S 1019,3 15 0 0,0
13.07.2018 03:00:00 14,2 12,4 13,8 21,9 19,0 4 2 6 3 SSW 1018,9 16 0 0,0
13.07.2018 02:00:00 14,0 11,2 14,5 22,0 19,1 6 3 8 4 SSE 1018,6 17 0 0,0
13.07.2018 01:00:00 14,8 12,3 15,0 22,0 19,0 5 3 6 4 S 1018,3 18 0 0,0
13.07.2018 00:00:00 16,4 12,6 15,8 22,1 19,0 3 2 6 3 S 1017,7 19 0 0,0
12.07.2018 23:00:00 16,5 12,6 16,5 22,1 19,0 3 2 8 5 SSE 1017,4 20 0 0,0
12.07.2018 22:00:00 18,2 12,6 17,8 22,1 19,0 3 2 10 5 SSW 1016,8 1,8 0 0,0
12.07.2018 21:00:00 20,4 13,4 20,0 22,1 19,0 9 5 11 6 S 1016,2 20 0 0,0
12.07.2018 20:00:00 24,5 11,8 24,4 22,0 19,0 7 4 18 10 NNW 1015,4 20 47 0,0
12.07.2018 19:00:00 26,5 13,9 25,5 21,9 19,0 10 6 21 11 NE 1014,9 19 50 0,0
12.07.2018 18:00:00 26,2 11,5 26,3 21,8 19,0 13 7 23 12 NE 1014,9 19 47 0,0
12.07.2018 17:00:00 28,1 11,2 27,6 21,7 19,0 3 1 20 11 S 1014,7 19 15 0,0
12.07.2018 16:00:00 26,5 12,5 28,4 21,6 19,0 12 6 22 12 NNE 1014,9 19 49 0,0
12.07.2018 15:00:00 26,6 10,3 30,9 21,5 19,0 11 6 21 11 N 1015,0 19 60 0,0
12.07.2018 14:00:00 25,6 12,1 29,7 21,5 19,0 13 7 21 11 NNE 1015,5 19 60 0,0
12.07.2018 13:00:00 24,3 12,6 29,2 21,4 19,0 12 7 21 11 N 1015,8 19 60 0,0
12.07.2018 12:00:00 23,3 12,3 26,2 21,4 19,0 9 5 19 10 N 1016,0 18 60 0,0
12.07.2018 11:00:00 22,0 11,4 25,3 21,4 19,0 8 5 20 11 NNW 1016,2 16 54 0,0
12.07.2018 10:00:00 20,9 11,0 22,4 21,5 19,0 7 4 19 10 N 1016,7 18 60 0,0
12.07.2018 09:00:00 19,8 11,8 18,0 21,6 19,0 3 2 8 4 NNE 1016,7 20 60 0,0
12.07.2018 08:00:00 16,7 12,0 13,2 21,7 19,0 3 1 6 4 S 1016,7 8 56 0,0
12.07.2018 07:00:00 11,8 10,4 12,6 21,8 19,0 4 2 8 4 S 1017,1 15 0 0,0
12.07.2018 06:00:00 12,9 10,4 12,7 21,8 19,0 4 2 12 7 S 1016,7 18 0 0,0
12.07.2018 05:00:00 12,7 9,9 12,9 21,9 19,0 10 6 13 7 S 1016,3 20 0 0,0
12.07.2018 04:00:00 14,2 10,2 13,8 22,0 19,0 3 2 13 7 SW 1016,1 19 0 0,0
12.07.2018 03:00:00 13,7 10,7 14,6 22,1 19,0 4 2 17 9 S 1016,0 19 0 0,0
12.07.2018 02:00:00 18,9 10,2 17,4 22,1 19,0 11 6 22 12 NNE 1015,7 20 0 0,0
12.07.2018 01:00:00 19,4 10,7 17,8 22,2 19,0 13 7 21 12 NNE 1015,5 45 0 0,0
12.07.2018 00:00:00 20,5 10,9 18,6 22,3 19,0 14 8 24 13 NE 1015,2 44 0 0,0
11.07.2018 23:00:00 21,8 10,6 18,1 22,3 19,0 16 9 27 15 N 1014,9 49 0 0,0
11.07.2018 22:00:00 20,0 11,7 18,9 22,3 19,0 7 4 16 9 SW 1014,7 16 0 0,0
11.07.2018 21:00:00 22,8 11,5 21,0 22,2 19,0 9 5 19 10 S 1013,7 20 0 0,0
11.07.2018 20:00:00 24,8 11,0 24,4 22,2 19,0 9 5 24 13 NW 1013,0 50 33 0,0
11.07.2018 19:00:00 26,9 11,8 26,5 22,1 19,0 11 6 28 15 NW 1012,4 19 60 0,0
11.07.2018 18:00:00 27,0 11,5 28,1 21,9 19,0 11 6 28 15 N 1012,3 19 60 0,0
11.07.2018 17:00:00 26,9 10,6 29,5 21,9 18,9 10 5 31 17 N 1012,3 19 60 0,0
11.07.2018 16:00:00 26,4 11,3 30,1 21,8 19,0 13 7 29 16 NNW 1012,7 18 60 0,0
11.07.2018 15:00:00 25,9 12,4 30,2 21,7 18,9 14 8 29 16 N 1013,0 18 60 0,0
11.07.2018 14:00:00 25,0 11,5 29,0 21,6 18,9 16 8 31 17 NNW 1013,5 18 60 0,0
11.07.2018 13:00:00 24,1 13,0 27,8 21,6 18,9 18 10 34 18 NNE 1013,7 16 60 0,0
11.07.2018 12:00:00 22,7 12,6 26,6 21,7 18,9 22 12 34 18 NNE 1014,2 18 60 0,0
11.07.2018 11:00:00 21,5 12,3 25,1 21,7 18,9 22 12 36 19 NNE 1014,5 18 60 0,0
11.07.2018 10:00:00 20,5 12,5 22,6 21,7 18,9 26 14 35 19 N 1014,7 18 60 0,0
11.07.2018 09:00:00 19,9 12,2 19,8 21,8 18,9 24 13 35 19 NNE 1014,8 20 60 0,0
11.07.2018 08:00:00 19,4 12,6 15,6 21,9 18,9 7 4 22 12 ENE 1014,7 19 57 0,0
11.07.2018 07:00:00 14,7 12,7 14,9 21,9 18,9 9 5 13 7 S 1015,1 16 4 0,0
11.07.2018 06:00:00 14,9 12,2 14,8 22,0 18,9 4 2 10 6 S 1015,1 18 0 0,0

tt = Température de l'air
td = dewpoint
tt 5cm = Température de l'air 5cm
tt -20cm = Température de l'air -20cm
tt -100cm = Température de l'air -100cm
ff = Vitesse du vent
fx = gusts
dd = Direction du vent
ppp = reduced air pressure
vv = visibility
sd = Ensoleillement
rr = Quantités de précipitations

stations d'obs. à proximité